Date String (YYYY-MM-DD hh:mm:ss) UTC,Instrument flags,Ambient pressure (hPa),Sample flow (lpm),Bypass flow (lpm),Sample temperature (°C),Ambient temperature (°C),ASC tube jacket temperature (°C),LED temperature (°C),Box temperature (°C),Sample RH (%),Span deviation,Mass concentration (μg/m³),Mass concentration (μg/m³),Mass concentration (μg/m³)
DateTimeUTC,F1_M11,P_M11,Q1_M11,Q2_M11,T1_M11,T2_M11,T3_M11,T4_M11,T5_M11,U1_M11,ZSPAN_M11,X0_M11,X2_M11,X1_M11
2022-05-27 16:00:00,,0824.6,5.00,0.00,29.4,27.7,00.0,38.3,31.2,18.1,0000.0,0006.55,0003.02,0002.19
2022-05-27 16:01:00,,0824.6,5.01,0.00,29.4,27.8,00.0,38.3,31.2,17.8,0000.0,0005.95,0003.04,0002.21
2022-05-27 16:02:00,,0824.6,5.01,0.00,29.4,28.0,00.0,38.3,31.3,17.7,0000.0,0005.85,0003.03,0002.24
2022-05-27 16:03:00,,0824.6,5.00,0.00,29.4,28.1,00.0,38.3,31.3,18.0,0000.0,0006.16,0002.97,0002.24
2022-05-27 16:04:00,,0824.5,4.99,0.00,29.5,28.3,00.0,38.3,31.4,18.3,0000.0,0006.54,0002.96,0002.23
2022-05-27 16:05:00,,0824.6,5.01,0.00,29.5,28.4,00.0,38.3,31.4,18.8,0000.0,0007.37,0002.93,0002.22
2022-05-27 16:06:00,,0824.6,5.01,0.00,29.5,28.5,00.0,38.3,31.4,18.3,0000.0,0007.46,0002.92,0002.22
2022-05-27 16:07:00,,0824.5,5.00,0.00,29.5,28.6,00.0,38.4,31.5,18.5,0000.0,0007.04,0002.97,0002.21
2022-05-27 16:08:00,,0824.4,5.01,0.00,29.6,28.4,00.0,38.3,31.5,17.9,0000.0,0007.12,0002.95,0002.22
2022-05-27 16:09:00,,0824.4,5.01,0.00,29.5,27.6,00.0,38.3,31.2,17.9,0000.0,0007.59,0002.94,0002.23
2022-05-27 16:10:00,,0824.4,5.00,0.00,29.4,27.2,00.0,38.2,31.1,18.2,0000.0,0007.77,0003.02,0002.25
2022-05-27 16:11:00,,0824.4,5.00,0.00,29.4,27.2,00.0,38.2,31.1,18.1,0000.0,0008.23,0003.05,0002.24
2022-05-27 16:12:00,,0824.4,5.01,0.00,29.3,27.3,00.0,38.2,31.1,18.4,0000.0,0008.46,0003.09,0002.24
2022-05-27 16:13:00,,0824.5,5.00,0.00,29.3,27.5,00.0,38.2,31.1,18.9,0000.0,0008.48,0003.08,0002.22
2022-05-27 16:14:00,,0824.6,4.98,0.00,29.3,27.6,00.0,38.2,31.1,19.5,0000.0,0008.65,0003.11,0002.23
2022-05-27 16:15:00,,0824.6,5.00,0.00,29.3,27.8,00.0,38.2,31.2,19.3,0000.0,0008.71,0003.16,0002.23
2022-05-27 16:16:00,,0824.6,5.00,0.00,29.4,28.0,00.0,38.2,31.2,18.7,0000.0,0008.76,0003.21,0002.25
2022-05-27 16:17:00,,0824.5,5.00,0.00,29.4,28.1,00.0,38.2,31.3,19.0,0000.0,0009.00,0003.24,0002.27
2022-05-27 16:18:00,,0824.5,5.00,0.00,29.4,28.2,00.0,38.2,31.3,18.1,0000.0,0009.10,0003.22,0002.27
2022-05-27 16:19:00,,0824.5,5.00,0.00,29.4,28.4,00.0,38.3,31.4,18.1,0000.0,0009.98,0003.25,0002.26
2022-05-27 16:20:00,,0824.4,5.00,0.00,29.5,28.5,00.0,38.3,31.4,18.9,0000.0,0009.68,0003.25,0002.25
2022-05-27 16:21:00,,0824.4,5.01,0.00,29.5,28.4,00.0,38.3,31.4,18.6,0000.0,0009.51,0003.21,0002.25
2022-05-27 16:22:00,,0824.5,5.00,0.00,29.5,27.7,00.0,38.2,31.2,19.1,0000.0,0009.53,0003.20,0002.25
2022-05-27 16:23:00,,0824.5,5.00,0.00,29.4,27.0,00.0,38.2,31.0,18.4,0000.0,0009.92,0003.19,0002.25
2022-05-27 16:24:00,,0824.5,5.01,0.00,29.3,27.0,00.0,38.1,31.0,18.8,0000.0,0009.95,0003.19,0002.26
2022-05-27 16:25:00,,0824.4,5.00,0.00,29.3,27.1,00.0,38.1,31.0,16.1,0000.0,0009.86,0003.19,0002.25
2022-05-27 16:26:00,,0824.4,4.99,0.00,29.2,27.3,00.0,38.1,31.0,15.4,0000.0,0009.46,0003.17,0002.24
2022-05-27 16:27:00,,0824.4,5.00,0.00,29.2,27.4,00.0,38.1,31.0,16.7,0000.0,0010.21,0003.16,0002.23
2022-05-27 16:28:00,,0824.3,5.01,0.00,29.2,27.6,00.0,38.1,31.1,16.1,0000.0,0009.54,0003.18,0002.22
2022-05-27 16:29:00,,0824.4,4.99,0.00,29.3,27.8,00.0,38.1,31.1,17.8,0000.0,0009.67,0003.21,0002.23
2022-05-27 16:30:00,,0824.3,5.01,0.00,29.3,28.0,00.0,38.1,31.2,20.1,0000.0,0009.79,0003.24,0002.25
2022-05-27 16:31:00,,0824.3,5.00,0.00,29.3,28.1,00.0,38.1,31.2,20.6,0000.0,0009.67,0003.30,0002.28
2022-05-27 16:32:00,,0824.4,5.00,0.00,29.3,28.2,00.0,38.2,31.3,19.7,0000.0,0009.72,0003.33,0002.29
2022-05-27 16:33:00,,0824.4,5.00,0.00,29.4,28.3,00.0,38.2,31.3,19.7,0000.0,0010.17,0003.32,0002.29
2022-05-27 16:34:00,,0824.4,4.99,0.00,29.4,28.5,00.0,38.2,31.4,19.4,0000.0,0010.28,0003.38,0002.29
2022-05-27 16:35:00,,0824.4,5.00,0.00,29.4,28.3,00.0,38.2,31.3,18.1,0000.0,0010.54,0003.37,0002.29
2022-05-27 16:36:00,,0824.4,5.00,0.00,29.4,27.5,00.0,38.1,31.1,18.4,0000.0,0010.63,0003.38,0002.32
2022-05-27 16:37:00,,0824.4,5.01,0.00,29.3,27.0,00.0,38.1,31.0,20.3,0000.0,0010.72,0003.39,0002.35
2022-05-27 16:38:00,,0824.3,4.99,0.00,29.3,27.0,00.0,38.1,30.9,20.4,0000.0,0010.04,0003.38,0002.36
2022-05-27 16:39:00,,0824.3,5.00,0.00,29.2,27.1,00.0,38.1,30.9,17.1,0000.0,0010.06,0003.37,0002.38
2022-05-27 16:40:00,,0824.3,5.01,0.00,29.2,27.3,00.0,38.1,31.0,17.0,0000.0,0010.18,0003.38,0002.38
2022-05-27 16:41:00,,0824.3,5.01,0.00,29.2,27.5,00.0,38.1,31.0,19.7,0000.0,0009.19,0003.36,0002.39
2022-05-27 16:42:00,,0824.3,5.00,0.00,29.2,27.6,00.0,38.1,31.1,19.4,0000.0,0009.19,0003.35,0002.41
2022-05-27 16:43:00,,0824.3,4.99,0.00,29.2,27.8,00.0,38.1,31.1,19.6,0000.0,0009.21,0003.37,0002.41
2022-05-27 16:44:00,,0824.3,4.99,0.00,29.2,28.0,00.0,38.1,31.2,20.5,0000.0,0008.85,0003.40,0002.44
2022-05-27 16:45:00,,0824.3,5.00,0.00,29.3,28.1,00.0,38.1,31.2,19.9,0000.0,0008.03,0003.37,0002.46
2022-05-27 16:46:00,,0824.3,5.00,0.00,29.3,28.2,00.0,38.1,31.3,19.9,0000.0,0008.33,0003.38,0002.47
2022-05-27 16:47:00,,0824.3,5.01,0.00,29.3,28.3,00.0,38.1,31.3,19.7,0000.0,0008.57,0003.39,0002.48
2022-05-27 16:48:00,,0824.3,5.00,0.00,29.4,28.5,00.0,38.1,31.3,18.5,0000.0,0008.65,0003.44,0002.48
2022-05-27 16:49:00,,0824.3,5.00,0.00,29.4,28.2,00.0,38.1,31.3,18.5,0000.0,0008.30,0003.45,0002.48
2022-05-27 16:50:00,,0824.3,4.99,0.00,29.3,27.4,00.0,38.1,31.1,18.5,0000.0,0008.32,0003.45,0002.48
2022-05-27 16:51:00,,0824.3,5.02,0.00,29.3,27.1,00.0,38.0,31.0,20.1,0000.0,0008.23,0003.45,0002.48
2022-05-27 16:52:00,,0824.3,4.99,0.00,29.2,27.1,00.0,38.0,30.9,18.5,0000.0,0008.75,0003.44,0002.48
2022-05-27 16:53:00,,0824.3,5.00,0.00,29.2,27.2,00.0,38.0,30.9,18.4,0000.0,0009.89,0003.46,0002.48
2022-05-27 16:54:00,,0824.3,5.01,0.00,29.2,27.3,00.0,38.0,31.0,19.7,0000.0,0010.18,0003.47,0002.47
2022-05-27 16:55:00,,0824.3,5.00,0.00,29.1,27.5,00.0,38.0,31.0,19.6,0000.0,0010.34,0003.44,0002.45
2022-05-27 16:56:00,,0824.3,5.00,0.00,29.2,27.7,00.0,38.0,31.0,21.4,0000.0,0010.50,0003.44,0002.45
2022-05-27 16:57:00,,0824.3,5.00,0.00,29.2,27.9,00.0,38.0,31.1,22.5,0000.0,0010.12,0003.45,0002.46
2022-05-27 16:58:00,,0824.3,4.99,0.00,29.2,28.0,00.0,38.1,31.2,21.0,0000.0,0009.79,0003.44,0002.45
2022-05-27 16:59:00,,0824.3,5.00,0.00,29.3,28.1,00.0,38.1,31.2,19.4,0000.0,0010.03,0003.40,0002.45
